^^

..:: Storico WU ::..




Lo storico viene creato da WUnderground con i dati che la stazione Meteomincio invia al loro server. L' aggiornamento viene fatto ogni 5 minuti circa, tuttavia possono esserci intervalli pił ampi a causa di errori, interruzioni di servizio o problemi nell' invio tramite FTP.


Storico stazione MeteoMincio
Giorno Sommario per Giugno 29, 2022 Unità:  Inglese    Metrico   Entrambi
Giorno Settimana Mese Anno
  Max: Min: Media:
Temperatura: 89.6 °F 68 °F 77.9 °F
Dew Point: 71.6 °F 64.4 °F 68.7 °F
Umidità: 93% 52% 75%
Velocità vento: 11.8mph 1.2mph 6.4mph
Raffica: 17.4mph - -
Direzione- - SW
Pressione: 29.9 in 29.8 in -
Precipitazioni: 0.39 in    
 
 
Tabulato Dati per Giugno 29, 2022
Ora Temperatura Dew Point Pressione Direzione Velocità vento Raffica Umidità Intensità pioggia (oraria) Info solare Situazione
00:04 71.6 °F 69.8 °F 29.9 in West 5 mph 8.1 mph 92% 0 in 0.00 W/m2 unknown
00:09 71.6 °F 69.8 °F 29.9 in NW 6.8 mph 11.2 mph 92% 0 in 0.00 W/m2 unknown
00:14 71.6 °F 69.8 °F 29.9 in NW 7.5 mph 11.2 mph 92% 0 in 0.00 W/m2 unknown
00:19 71.6 °F 69.8 °F 29.9 in NNW 6.8 mph 9.3 mph 92% 0.01 in 0.00 W/m2 unknown
00:24 71.6 °F 69.8 °F 29.9 in NNW 6.2 mph 11.8 mph 92% 0.01 in 0.00 W/m2 unknown
00:29 71.6 °F 69.8 °F 29.9 in NNE 6.8 mph 11.8 mph 92% 0.01 in 0.00 W/m2 unknown
00:34 71.6 °F 68 °F 29.9 in NNW 8.7 mph 11.8 mph 92% 0.01 in 0.00 W/m2 unknown
00:39 69.8 °F 68 °F 29.9 in NNW 8.1 mph 11.8 mph 92% 0.01 in 0.00 W/m2 unknown
00:44 69.8 °F 68 °F 29.8 in North 6.8 mph 11.8 mph 92% 0.01 in 0.00 W/m2 unknown
00:49 69.8 °F 68 °F 29.8 in North 8.1 mph 14.9 mph 92% 0.01 in 0.00 W/m2 unknown
00:54 69.8 °F 68 °F 29.8 in North 8.1 mph 13.7 mph 91% 0.01 in 0.00 W/m2 unknown
00:59 69.8 °F 68 °F 29.8 in NW 10.6 mph 14.3 mph 91% 0.01 in 0.00 W/m2 unknown
01:04 69.8 °F 68 °F 29.8 in NW 9.9 mph 14.3 mph 90% 0.01 in 0.00 W/m2 unknown
01:09 69.8 °F 68 °F 29.8 in NNW 8.7 mph 14.3 mph 90% 0.01 in 0.00 W/m2 unknown
01:14 69.8 °F 68 °F 29.8 in NNW 8.1 mph 10.6 mph 90% 0.01 in 0.00 W/m2 unknown
01:19 69.8 °F 66.2 °F 29.8 in WNW 6.8 mph 9.3 mph 89% 0.01 in 0.00 W/m2 unknown
01:24 69.8 °F 68 °F 29.8 in WNW 6.2 mph 8.7 mph 90% 0.01 in 0.00 W/m2 unknown
01:29 69.8 °F 68 °F 29.8 in NW 6.2 mph 9.9 mph 90% 0.01 in 0.00 W/m2 unknown
01:34 69.8 °F 68 °F 29.8 in NW 6.2 mph 10.6 mph 90% 0.01 in 0.00 W/m2 unknown
01:39 69.8 °F 68 °F 29.8 in NNW 6.2 mph 10.6 mph 90% 0.01 in 0.00 W/m2 unknown
01:44 69.8 °F 68 °F 29.8 in NW 6.2 mph 9.9 mph 89% 0.01 in 0.00 W/m2 unknown
01:49 71.6 °F 68 °F 29.8 in NW 5.6 mph 10.6 mph 89% 0 in 0.00 W/m2 unknown
01:54 71.6 °F 68 °F 29.8 in NW 5 mph 10.6 mph 89% 0 in 0.00 W/m2 unknown
01:59 71.6 °F 68 °F 29.8 in NW 5.6 mph 10.6 mph 89% 0 in 0.00 W/m2 unknown
02:04 71.6 °F 68 °F 29.8 in West 5.6 mph 10.6 mph 88% 0 in 0.00 W/m2 unknown
02:09 71.6 °F 68 °F 29.8 in WNW 5.6 mph 9.9 mph 88% 0 in 0.00 W/m2 unknown
02:13 71.6 °F 68 °F 29.8 in West 5.6 mph 9.3 mph 88% 0 in 0.00 W/m2 unknown
02:18 71.6 °F 68 °F 29.8 in WNW 5.6 mph 9.3 mph 88% 0 in 0.00 W/m2 unknown
02:24 71.6 °F 68 °F 29.8 in NW 5 mph 5 mph 87% 0 in 0.00 W/m2 unknown
02:29 71.6 °F 68 °F 29.8 in NNW 1.9 mph 3.7 mph 87% 0 in 0.00 W/m2 unknown
02:34 71.6 °F 68 °F 29.8 in NW 1.9 mph 5 mph 87% 0 in 0.00 W/m2 unknown
02:39 71.6 °F 68 °F 29.8 in West 3.1 mph 6.8 mph 87% 0 in 0.00 W/m2 unknown
02:44 71.6 °F 68 °F 29.8 in West 4.3 mph 6.8 mph 88% 0 in 0.00 W/m2 unknown
02:49 71.6 °F 68 °F 29.8 in WSW 4.3 mph 6.8 mph 88% 0 in 0.00 W/m2 unknown
02:54 71.6 °F 68 °F 29.8 in West 5.6 mph 10.6 mph 88% 0 in 0.00 W/m2 unknown
02:59 69.8 °F 66.2 °F 29.8 in West 8.7 mph 11.8 mph 89% 0 in 0.00 W/m2 unknown
03:04 69.8 °F 66.2 °F 29.8 in West 8.7 mph 11.8 mph 89% 0 in 0.00 W/m2 unknown
03:09 69.8 °F 66.2 °F 29.8 in West 9.3 mph 12.4 mph 90% 0 in 0.00 W/m2 unknown
03:14 69.8 °F 66.2 °F 29.8 in West 11.2 mph 13 mph 90% 0 in 0.00 W/m2 unknown
03:19 69.8 °F 66.2 °F 29.8 in West 11.8 mph 14.9 mph 90% 0 in 0.00 W/m2 unknown
03:21 69.8 °F 66.2 °F 29.8 in WNW 11.2 mph 14.9 mph 90% 0 in 0.00 W/m2 unknown
03:28 69.8 °F 66.2 °F 29.8 in WNW 11.8 mph 14.9 mph 90% 0 in 0.00 W/m2 unknown
03:34 69.8 °F 66.2 °F 29.8 in West 11.8 mph 14.9 mph 90% 0 in 0.00 W/m2 unknown
03:36 69.8 °F 66.2 °F 29.8 in WSW 11.8 mph 14.9 mph 88% 0 in 0.00 W/m2 unknown
03:44 69.8 °F 66.2 °F 29.8 in WSW 11.8 mph 14.9 mph 88% 0 in 0.00 W/m2 unknown
03:47 69.8 °F 66.2 °F 29.8 in SW 9.9 mph 14.3 mph 88% 0 in 0.00 W/m2 unknown
03:51 69.8 °F 66.2 °F 29.8 in SW 9.9 mph 11.8 mph 88% 0 in 0.00 W/m2 unknown
03:58 69.8 °F 66.2 °F 29.8 in West 8.7 mph 13 mph 89% 0 in 0.00 W/m2 unknown
04:03 69.8 °F 66.2 °F 29.8 in West 8.7 mph 13 mph 89% 0 in 0.00 W/m2 unknown
04:08 69.8 °F 66.2 °F 29.8 in West 8.7 mph 12.4 mph 89% 0 in 0.00 W/m2 unknown
04:13 69.8 °F 66.2 °F 29.8 in WNW 8.1 mph 11.2 mph 88% 0 in 0.00 W/m2 unknown
04:19 69.8 °F 66.2 °F 29.8 in WNW 8.1 mph 10.6 mph 90% 0 in 0.00 W/m2 unknown
04:24 69.8 °F 66.2 °F 29.8 in West 5 mph 9.9 mph 90% 0 in 0.00 W/m2 unknown
04:29 69.8 °F 66.2 °F 29.8 in West 5.6 mph 8.1 mph 91% 0 in 0.00 W/m2 unknown
04:33 68 °F 66.2 °F 29.8 in WNW 6.2 mph 8.1 mph 91% 0 in 0.00 W/m2 unknown
04:39 68 °F 66.2 °F 29.8 in West 6.2 mph 9.3 mph 92% 0 in 0.00 W/m2 unknown
04:43 68 °F 66.2 °F 29.8 in WSW 6.2 mph 9.9 mph 92% 0 in 0.00 W/m2 unknown
04:49 68 °F 66.2 °F 29.8 in West 9.3 mph 11.8 mph 92% 0 in 0.00 W/m2 unknown
04:54 68 °F 66.2 °F 29.8 in WSW 8.1 mph 11.8 mph 93% 0 in 0.00 W/m2 unknown
04:58 68 °F 66.2 °F 29.8 in WSW 8.1 mph 11.2 mph 93% 0 in 0.00 W/m2 unknown
05:04 68 °F 66.2 °F 29.8 in WSW 8.1 mph 11.8 mph 93% 0 in 0.00 W/m2 unknown
05:08 68 °F 66.2 °F 29.8 in West 6.8 mph 11.8 mph 93% 0 in 0.00 W/m2 unknown
05:13 68 °F 66.2 °F 29.8 in West 5.6 mph 10.6 mph 93% 0 in 0.00 W/m2 unknown
05:19 68 °F 66.2 °F 29.8 in WSW 5.6 mph 9.3 mph 93% 0 in 0.00 W/m2 unknown
05:24 68 °F 66.2 °F 29.8 in West 5.6 mph 10.6 mph 93% 0 in 0.00 W/m2 unknown
05:29 68 °F 66.2 °F 29.8 in West 6.2 mph 10.6 mph 93% 0 in 0.00 W/m2 unknown
05:34 68 °F 66.2 °F 29.8 in WNW 6.8 mph 11.8 mph 93% 0 in 0.00 W/m2 unknown
05:39 68 °F 66.2 °F 29.8 in West 7.5 mph 11.8 mph 93% 0 in 0.00 W/m2 unknown
05:44 68 °F 66.2 °F 29.8 in WNW 8.1 mph 11.8 mph 93% 0 in 0.00 W/m2 unknown
05:49 68 °F 66.2 °F 29.8 in West 7.5 mph 11.8 mph 93% 0 in 0.00 W/m2 unknown
05:54 68 °F 66.2 °F 29.8 in West 6.8 mph 9.9 mph 93% 0 in 0.00 W/m2 unknown
05:59 68 °F 66.2 °F 29.8 in West 6.8 mph 11.8 mph 93% 0.01 in 0.00 W/m2 unknown
06:00 68 °F 66.2 °F 29.8 in West 6.2 mph 11.8 mph 93% 0 in 0.00 W/m2 unknown
06:05 68 °F 66.2 °F 29.8 in West 6.8 mph 11.8 mph 93% 0.01 in 0.00 W/m2 unknown
06:14 68 °F 66.2 °F 29.8 in WNW 8.1 mph 13 mph 92% 0.13 in 5.00 W/m2 unknown
06:17 68 °F 64.4 °F 29.8 in West 8.7 mph 13 mph 92% 0.17 in 5.00 W/m2 unknown
06:21 68 °F 64.4 °F 29.8 in West 8.7 mph 13 mph 92% 0.21 in 5.00 W/m2 unknown
06:29 68 °F 64.4 °F 29.8 in WNW 8.7 mph 12.4 mph 92% 0.36 in 5.00 W/m2 unknown
06:34 68 °F 64.4 °F 29.8 in West 6.8 mph 13 mph 91% 0.39 in 7.00 W/m2 unknown
06:37 68 °F 64.4 °F 29.8 in West 6.8 mph 13 mph 91% 0.39 in 12.00 W/m2 unknown
06:59 68 °F 64.4 °F 29.8 in WNW 10.6 mph 11.8 mph 91% 0.39 in 32.00 W/m2 unknown
07:04 68 °F 64.4 °F 29.8 in West 8.7 mph 11.8 mph 91% 0.39 in 44.00 W/m2 unknown
07:09 68 °F 64.4 °F 29.8 in West 8.7 mph 11.8 mph 91% 0.39 in 47.00 W/m2 unknown
07:14 68 °F 64.4 °F 29.8 in West 8.1 mph 11.8 mph 91% 0.39 in 47.00 W/m2 unknown
07:19 68 °F 64.4 °F 29.8 in West 7.5 mph 11.8 mph 90% 0.39 in 47.00 W/m2 unknown
07:24 68 °F 64.4 °F 29.8 in West 6.8 mph 11.8 mph 90% 0.38 in 54.00 W/m2 unknown
07:29 68 °F 64.4 °F 29.8 in WNW 9.3 mph 11.8 mph 89% 0.33 in 65.00 W/m2 unknown
07:34 68 °F 64.4 °F 29.8 in West 8.1 mph 11.8 mph 89% 0.25 in 74.00 W/m2 unknown
07:39 68 °F 64.4 °F 29.8 in West 7.5 mph 10.6 mph 89% 0.17 in 79.00 W/m2 unknown
07:44 68 °F 64.4 °F 29.8 in West 6.8 mph 9.9 mph 89% 0.02 in 81.00 W/m2 unknown
07:49 68 °F 64.4 °F 29.8 in West 6.8 mph 10.6 mph 89% 0 in 77.00 W/m2 unknown
07:54 68 °F 64.4 °F 29.8 in West 7.5 mph 10.6 mph 89% 0 in 91.00 W/m2 unknown
07:59 68 °F 64.4 °F 29.8 in West 8.7 mph 11.8 mph 88% 0 in 130.00 W/m2 unknown
08:04 69.8 °F 66.2 °F 29.8 in West 8.1 mph 11.8 mph 88% 0 in 153.00 W/m2 unknown
08:09 69.8 °F 66.2 °F 29.8 in West 6.8 mph 11.8 mph 87% 0 in 153.00 W/m2 unknown
08:14 69.8 °F 66.2 °F 29.8 in WNW 8.7 mph 11.8 mph 87% 0 in 162.00 W/m2 unknown
08:19 69.8 °F 66.2 °F 29.8 in WNW 8.1 mph 11.8 mph 86% 0 in 262.00 W/m2 unknown
08:24 69.8 °F 66.2 °F 29.8 in WNW 7.5 mph 10.6 mph 86% 0 in 218.00 W/m2 unknown
08:29 69.8 °F 66.2 °F 29.8 in West 8.7 mph 14.3 mph 86% 0 in 200.00 W/m2 unknown
08:34 69.8 °F 66.2 °F 29.8 in West 9.3 mph 14.3 mph 85% 0 in 172.00 W/m2 unknown
08:39 69.8 °F 66.2 °F 29.8 in West 8.7 mph 14.3 mph 85% 0 in 213.00 W/m2 unknown
08:44 71.6 °F 66.2 °F 29.8 in West 8.7 mph 13 mph 85% 0 in 478.00 W/m2 unknown
08:49 71.6 °F 68 °F 29.8 in West 8.7 mph 11.8 mph 85% 0 in 529.00 W/m2 unknown
08:54 73.4 °F 68 °F 29.8 in West 9.3 mph 14.3 mph 84% 0 in 520.00 W/m2 unknown
08:59 73.4 °F 66.2 °F 29.8 in West 11.2 mph 16.2 mph 81% 0 in 508.00 W/m2 unknown
09:04 73.4 °F 68 °F 29.8 in West 10.6 mph 16.2 mph 81% 0 in 520.00 W/m2 unknown
09:09 73.4 °F 66.2 °F 29.8 in West 11.8 mph 14.9 mph 80% 0 in 524.00 W/m2 unknown
09:14 73.4 °F 68 °F 29.8 in West 9.9 mph 13 mph 81% 0 in 475.00 W/m2 unknown
09:19 73.4 °F 68 °F 29.8 in West 9.9 mph 13 mph 81% 0 in 519.00 W/m2 unknown
09:24 73.4 °F 68 °F 29.8 in West 9.3 mph 13 mph 81% 0 in 524.00 W/m2 unknown
09:29 75.2 °F 68 °F 29.8 in West 9.9 mph 13 mph 81% 0 in 513.00 W/m2 unknown
09:34 75.2 °F 68 °F 29.8 in West 9.9 mph 14.9 mph 81% 0 in 496.00 W/m2 unknown
09:39 75.2 °F 68 °F 29.8 in West 11.2 mph 14.9 mph 80% 0 in 497.00 W/m2 unknown
09:44 75.2 °F 68 °F 29.8 in West 11.8 mph 17.4 mph 79% 0 in 531.00 W/m2 unknown
09:49 75.2 °F 68 °F 29.8 in West 11.8 mph 17.4 mph 79% 0 in 543.00 W/m2 unknown
09:54 75.2 °F 68 °F 29.8 in West 11.2 mph 16.8 mph 77% 0 in 557.00 W/m2 unknown
09:59 75.2 °F 68 °F 29.8 in WNW 11.8 mph 16.2 mph 77% 0 in 555.00 W/m2 unknown
10:04 75.2 °F 68 °F 29.8 in West 11.8 mph 16.2 mph 78% 0 in 563.00 W/m2 unknown
10:09 77 °F 69.8 °F 29.8 in West 11.8 mph 16.2 mph 78% 0 in 564.00 W/m2 unknown
10:14 77 °F 69.8 °F 29.8 in West 9.9 mph 14.9 mph 78% 0 in 585.00 W/m2 unknown
10:19 77 °F 69.8 °F 29.8 in West 9.9 mph 13.7 mph 77% 0 in 592.00 W/m2 unknown
10:24 77 °F 69.8 °F 29.8 in WSW 10.6 mph 14.3 mph 77% 0 in 608.00 W/m2 unknown
10:29 77 °F 69.8 °F 29.8 in West 11.2 mph 14.9 mph 77% 0 in 621.00 W/m2 unknown
10:34 77 °F 69.8 °F 29.8 in West 9.9 mph 11.8 mph 77% 0 in 624.00 W/m2 unknown
10:39 77 °F 69.8 °F 29.8 in West 9.9 mph 13 mph 77% 0 in 638.00 W/m2 unknown
10:44 78.8 °F 69.8 °F 29.8 in WNW 9.9 mph 13 mph 75% 0 in 649.00 W/m2 unknown
10:49 78.8 °F 69.8 °F 29.8 in WNW 8.7 mph 12.4 mph 75% 0 in 649.00 W/m2 unknown
10:54 78.8 °F 69.8 °F 29.8 in WNW 7.5 mph 13 mph 75% 0 in 668.00 W/m2 unknown
10:59 78.8 °F 69.8 °F 29.8 in West 9.9 mph 13 mph 73% 0 in 686.00 W/m2 unknown
11:04 78.8 °F 69.8 °F 29.8 in WNW 9.3 mph 13 mph 72% 0 in 689.00 W/m2 unknown
11:09 78.8 °F 69.8 °F 29.8 in West 8.7 mph 11.8 mph 73% 0 in 696.00 W/m2 unknown
11:14 78.8 °F 69.8 °F 29.8 in West 7.5 mph 10.6 mph 73% 0 in 710.00 W/m2 unknown
11:19 80.6 °F 69.8 °F 29.8 in West 8.1 mph 11.2 mph 73% 0 in 714.00 W/m2 unknown
11:24 80.6 °F 69.8 °F 29.8 in West 8.7 mph 11.2 mph 73% 0 in 724.00 W/m2 unknown
11:29 80.6 °F 69.8 °F 29.8 in WSW 9.3 mph 13 mph 73% 0 in 733.00 W/m2 unknown
11:34 80.6 °F 69.8 °F 29.8 in West 8.7 mph 13 mph 71% 0 in 744.00 W/m2 unknown
11:39 80.6 °F 69.8 °F 29.8 in West 10.6 mph 13 mph 70% 0 in 759.00 W/m2 unknown
11:44 80.6 °F 68 °F 29.8 in West 10.6 mph 13 mph 67% 0 in 765.00 W/m2 unknown
11:49 80.6 °F 69.8 °F 29.8 in WNW 9.3 mph 14.3 mph 68% 0 in 773.00 W/m2 unknown
11:54 80.6 °F 69.8 °F 29.8 in WNW 11.8 mph 14.3 mph 67% 0 in 777.00 W/m2 unknown
11:59 82.4 °F 69.8 °F 29.8 in WNW 8.1 mph 14.3 mph 67% 0 in 784.00 W/m2 unknown
12:04 82.4 °F 69.8 °F 29.8 in WNW 9.3 mph 13 mph 68% 0 in 784.00 W/m2 unknown
12:09 82.4 °F 69.8 °F 29.8 in West 9.9 mph 13 mph 68% 0 in 795.00 W/m2 unknown
12:14 82.4 °F 69.8 °F 29.8 in WNW 9.9 mph 13 mph 66% 0 in 798.00 W/m2 unknown
12:19 82.4 °F 69.8 °F 29.8 in WNW 9.3 mph 13 mph 66% 0 in 809.00 W/m2 unknown
12:24 82.4 °F 69.8 °F 29.8 in WNW 8.7 mph 13 mph 67% 0 in 807.00 W/m2 unknown
12:29 82.4 °F 69.8 °F 29.8 in WNW 9.3 mph 11.8 mph 66% 0 in 842.00 W/m2 unknown
12:34 82.4 °F 69.8 °F 29.8 in WNW 6.8 mph 11.8 mph 65% 0 in 833.00 W/m2 unknown
12:39 82.4 °F 69.8 °F 29.8 in WNW 5.6 mph 8.7 mph 66% 0 in 777.00 W/m2 unknown
12:44 82.4 °F 69.8 °F 29.8 in WNW 6.8 mph 8.1 mph 66% 0 in 694.00 W/m2 unknown
12:49 82.4 °F 69.8 °F 29.8 in West 8.1 mph 11.8 mph 67% 0 in 703.00 W/m2 unknown
12:54 82.4 °F 69.8 °F 29.8 in WNW 7.5 mph 11.8 mph 66% 0 in 780.00 W/m2 unknown
12:59 84.2 °F 71.6 °F 29.8 in West 6.8 mph 9.9 mph 68% 0 in 867.00 W/m2 unknown
13:04 84.2 °F 71.6 °F 29.8 in WNW 7.5 mph 9.9 mph 67% 0 in 860.00 W/m2 unknown
13:09 84.2 °F 69.8 °F 29.8 in WNW 9.9 mph 11.8 mph 63% 0 in 846.00 W/m2 unknown
13:14 84.2 °F 69.8 °F 29.8 in West 7.5 mph 11.8 mph 64% 0 in 844.00 W/m2 unknown
13:19 84.2 °F 69.8 °F 29.8 in WNW 6.8 mph 9.3 mph 63% 0 in 847.00 W/m2 unknown
13:24 84.2 °F 69.8 °F 29.8 in WSW 6.8 mph 9.3 mph 64% 0 in 849.00 W/m2 unknown
13:29 84.2 °F 69.8 °F 29.8 in West 6.2 mph 8.1 mph 63% 0 in 849.00 W/m2 unknown
13:34 84.2 °F 69.8 °F 29.8 in WNW 8.7 mph 10.6 mph 63% 0 in 840.00 W/m2 unknown
13:39 84.2 °F 69.8 °F 29.8 in WNW 8.1 mph 10.6 mph 62% 0 in 847.00 W/m2 unknown
13:44 86 °F 69.8 °F 29.8 in WNW 8.1 mph 10.6 mph 63% 0 in 849.00 W/m2 unknown
13:49 86 °F 71.6 °F 29.8 in WNW 5 mph 9.9 mph 63% 0 in 844.00 W/m2 unknown
13:54 86 °F 71.6 °F 29.8 in WNW 7.5 mph 9.3 mph 63% 0 in 853.00 W/m2 unknown
13:59 86 °F 69.8 °F 29.8 in WNW 6.8 mph 9.3 mph 60% 0 in 853.00 W/m2 unknown
14:04 86 °F 71.6 °F 29.8 in WSW 6.2 mph 9.3 mph 62% 0 in 847.00 W/m2 unknown
14:09 86 °F 71.6 °F 29.8 in WSW 6.8 mph 9.3 mph 62% 0 in 844.00 W/m2 unknown
14:14 86 °F 69.8 °F 29.8 in West 8.1 mph 11.8 mph 60% 0 in 842.00 W/m2 unknown
14:19 86 °F 69.8 °F 29.8 in WNW 6.8 mph 11.8 mph 59% 0 in 837.00 W/m2 unknown
14:24 86 °F 69.8 °F 29.8 in West 6.2 mph 9.9 mph 59% 0 in 837.00 W/m2 unknown
14:29 86 °F 69.8 °F 29.8 in WSW 6.8 mph 9.3 mph 60% 0 in 826.00 W/m2 unknown
14:34 86 °F 69.8 °F 29.8 in WNW 6.8 mph 11.2 mph 60% 0 in 821.00 W/m2 unknown
14:39 86 °F 69.8 °F 29.8 in WNW 8.1 mph 11.8 mph 59% 0 in 816.00 W/m2 unknown
14:44 87.8 °F 69.8 °F 29.8 in NW 5 mph 6.8 mph 59% 0 in 814.00 W/m2 unknown
14:49 87.8 °F 69.8 °F 29.8 in NW 5.6 mph 6.8 mph 58% 0 in 807.00 W/m2 unknown
14:54 86 °F 71.6 °F 29.8 in WNW 5.6 mph 6.8 mph 59% 0 in 803.00 W/m2 unknown
14:59 87.8 °F 71.6 °F 29.8 in NNW 4.3 mph 6.2 mph 59% 0 in 803.00 W/m2 unknown
15:04 87.8 °F 69.8 °F 29.8 in WNW 6.2 mph 8.1 mph 57% 0 in 796.00 W/m2 unknown
15:09 87.8 °F 69.8 °F 29.8 in NW 6.2 mph 8.1 mph 58% 0 in 796.00 W/m2 unknown
15:14 87.8 °F 71.6 °F 29.8 in WNW 4.3 mph 8.1 mph 60% 0 in 786.00 W/m2 unknown
15:19 87.8 °F 71.6 °F 29.8 in WNW 4.3 mph 6.8 mph 59% 0 in 766.00 W/m2 unknown
15:24 87.8 °F 71.6 °F 29.8 in WNW 6.8 mph 9.3 mph 59% 0 in 766.00 W/m2 unknown
15:29 87.8 °F 71.6 °F 29.8 in WNW 5.6 mph 8.7 mph 57% 0 in 766.00 W/m2 unknown
15:34 87.8 °F 69.8 °F 29.8 in West 6.8 mph 10.6 mph 57% 0 in 763.00 W/m2 unknown
15:39 87.8 °F 71.6 °F 29.8 in WSW 7.5 mph 10.6 mph 58% 0 in 751.00 W/m2 unknown
15:44 87.8 °F 69.8 °F 29.8 in West 6.8 mph 9.9 mph 56% 0 in 740.00 W/m2 unknown
15:49 87.8 °F 69.8 °F 29.8 in WNW 5 mph 6.8 mph 58% 0 in 731.00 W/m2 unknown
15:54 87.8 °F 69.8 °F 29.8 in WSW 7.5 mph 9.3 mph 57% 0 in 729.00 W/m2 unknown
15:59 87.8 °F 69.8 °F 29.8 in WSW 6.2 mph 8.7 mph 57% 0 in 717.00 W/m2 unknown
16:04 87.8 °F 69.8 °F 29.8 in WSW 5.6 mph 8.1 mph 57% 0 in 710.00 W/m2 unknown
16:09 87.8 °F 71.6 °F 29.8 in WSW 6.2 mph 8.1 mph 57% 0 in 703.00 W/m2 unknown
16:14 87.8 °F 69.8 °F 29.8 in WSW 5 mph 8.1 mph 55% 0 in 691.00 W/m2 unknown
16:19 87.8 °F 69.8 °F 29.8 in West 5 mph 6.8 mph 57% 0 in 680.00 W/m2 unknown
16:24 87.8 °F 69.8 °F 29.8 in West 5 mph 6.2 mph 55% 0 in 673.00 W/m2 unknown
16:29 87.8 °F 69.8 °F 29.8 in West 4.3 mph 6.8 mph 55% 0 in 661.00 W/m2 unknown
16:34 87.8 °F 69.8 °F 29.8 in WNW 3.1 mph 6.8 mph 53% 0 in 649.00 W/m2 unknown
16:39 87.8 °F 69.8 °F 29.8 in WSW 1.9 mph 3.7 mph 54% 0 in 636.00 W/m2 unknown
16:44 87.8 °F 69.8 °F 29.8 in NW 4.3 mph 6.8 mph 55% 0 in 624.00 W/m2 unknown
16:49 89.6 °F 69.8 °F 29.8 in West 3.7 mph 6.8 mph 54% 0 in 612.00 W/m2 unknown
16:54 87.8 °F 69.8 °F 29.8 in WNW 5 mph 6.8 mph 54% 0 in 605.00 W/m2 unknown
16:59 87.8 °F 69.8 °F 29.8 in WNW 3.7 mph 6.8 mph 53% 0 in 594.00 W/m2 unknown
17:04 87.8 °F 69.8 °F 29.8 in NNE 4.3 mph 6.8 mph 53% 0 in 575.00 W/m2 unknown
17:09 87.8 °F 68 °F 29.8 in NE 2.5 mph 5 mph 53% 0 in 557.00 W/m2 unknown
17:14 87.8 °F 69.8 °F 29.8 in NNW 3.1 mph 5 mph 55% 0 in 545.00 W/m2 unknown
17:19 89.6 °F 69.8 °F 29.8 in NNW 3.7 mph 5 mph 55% 0 in 529.00 W/m2 unknown
17:24 89.6 °F 69.8 °F 29.8 in WNW 3.1 mph 5 mph 52% 0 in 522.00 W/m2 unknown
17:29 89.6 °F 68 °F 29.8 in NW 3.1 mph 3.7 mph 52% 0 in 512.00 W/m2 unknown
17:34 87.8 °F 69.8 °F 29.8 in NNW 3.1 mph 3.7 mph 54% 0 in 501.00 W/m2 unknown
17:39 89.6 °F 69.8 °F 29.8 in West 3.1 mph 3.7 mph 53% 0 in 489.00 W/m2 unknown
17:44 87.8 °F 69.8 °F 29.8 in SW 2.5 mph 3.7 mph 53% 0 in 482.00 W/m2 unknown
17:49 87.8 °F 69.8 °F 29.8 in SSW 1.9 mph 3.7 mph 53% 0 in 466.00 W/m2 unknown
17:54 89.6 °F 69.8 °F 29.8 in WNW 1.9 mph 3.7 mph 53% 0 in 448.00 W/m2 unknown
17:59 89.6 °F 69.8 °F 29.8 in WNW 1.2 mph 3.7 mph 53% 0 in 432.00 W/m2 unknown
18:04 87.8 °F 69.8 °F 29.8 in NNE 5.6 mph 6.8 mph 53% 0 in 422.00 W/m2 unknown
18:09 87.8 °F 68 °F 29.8 in NE 5 mph 6.8 mph 53% 0 in 410.00 W/m2 unknown
18:14 87.8 °F 68 °F 29.8 in ENE 4.3 mph 6.2 mph 53% 0 in 392.00 W/m2 unknown
18:19 87.8 °F 68 °F 29.8 in East 5 mph 6.2 mph 53% 0 in 381.00 W/m2 unknown
18:24 87.8 °F 68 °F 29.8 in NE 3.1 mph 6.2 mph 53% 0 in 362.00 W/m2 unknown
18:29 87.8 °F 68 °F 29.8 in East 4.3 mph 6.8 mph 53% 0 in 350.00 W/m2 unknown
18:34 87.8 °F 69.8 °F 29.8 in East 5 mph 6.8 mph 54% 0 in 336.00 W/m2 unknown
18:39 87.8 °F 69.8 °F 29.8 in ESE 3.1 mph 5 mph 55% 0 in 322.00 W/m2 unknown
18:44 87.8 °F 69.8 °F 29.8 in NE 1.9 mph 5 mph 55% 0 in 309.00 W/m2 unknown
18:49 87.8 °F 69.8 °F 29.8 in East 2.5 mph 5 mph 54% 0 in 295.00 W/m2 unknown
18:54 87.8 °F 69.8 °F 29.8 in ESE 2.5 mph 5 mph 54% 0 in 283.00 W/m2 unknown
18:59 87.8 °F 69.8 °F 29.8 in ESE 2.5 mph 3.7 mph 55% 0 in 267.00 W/m2 unknown
19:04 87.8 °F 69.8 °F 29.8 in ESE 3.1 mph 5 mph 56% 0 in 251.00 W/m2 unknown
19:09 87.8 °F 69.8 °F 29.8 in East 3.1 mph 5 mph 56% 0 in 237.00 W/m2 unknown
19:14 87.8 °F 69.8 °F 29.8 in East 3.7 mph 5 mph 56% 0 in 221.00 W/m2 unknown
19:19 86 °F 69.8 °F 29.8 in East 3.1 mph 5 mph 58% 0 in 209.00 W/m2 unknown
19:24 86 °F 69.8 °F 29.8 in ENE 3.7 mph 5 mph 58% 0 in 193.00 W/m2 unknown
19:29 86 °F 69.8 °F 29.8 in ENE 2.5 mph 5 mph 56% 0 in 181.00 W/m2 unknown
19:34 86 °F 69.8 °F 29.8 in ENE 1.9 mph 3.7 mph 58% 0 in 167.00 W/m2 unknown
19:39 86 °F 69.8 °F 29.8 in ENE 3.1 mph 5 mph 59% 0 in 153.00 W/m2 unknown
19:44 86 °F 69.8 °F 29.8 in ENE 3.7 mph 6.2 mph 59% 0 in 139.00 W/m2 unknown
19:49 86 °F 69.8 °F 29.8 in ENE 4.3 mph 6.2 mph 58% 0 in 125.00 W/m2 unknown
19:54 86 °F 69.8 °F 29.8 in ENE 3.7 mph 6.2 mph 59% 0 in 113.00 W/m2 unknown
19:59 86 °F 69.8 °F 29.8 in East 3.1 mph 5 mph 60% 0 in 95.00 W/m2 unknown
20:04 86 °F 69.8 °F 29.8 in East 2.5 mph 3.7 mph 61% 0 in 88.00 W/m2 unknown
20:09 84.2 °F 69.8 °F 29.8 in East 3.1 mph 5 mph 62% 0 in 72.00 W/m2 unknown
20:14 84.2 °F 71.6 °F 29.8 in East 5 mph 6.8 mph 64% 0 in 62.00 W/m2 unknown
20:19 84.2 °F 71.6 °F 29.8 in ENE 5 mph 6.8 mph 66% 0 in 37.00 W/m2 unknown
20:24 84.2 °F 71.6 °F 29.8 in ENE 4.3 mph 8.1 mph 67% 0 in 33.00 W/m2 unknown
20:29 84.2 °F 71.6 °F 29.8 in ENE 5 mph 8.1 mph 68% 0 in 30.00 W/m2 unknown
20:34 82.4 °F 71.6 °F 29.8 in ENE 3.7 mph 6.8 mph 69% 0 in 26.00 W/m2 unknown
20:39 82.4 °F 71.6 °F 29.8 in ENE 3.1 mph 5 mph 70% 0 in 23.00 W/m2 unknown
20:44 82.4 °F 71.6 °F 29.8 in ENE 3.1 mph 5 mph 71% 0 in 19.00 W/m2 unknown
20:49 82.4 °F 71.6 °F 29.8 in ENE 3.1 mph 5 mph 71% 0 in 16.00 W/m2 unknown
20:54 82.4 °F 71.6 °F 29.8 in ENE 2.5 mph 5 mph 71% 0 in 12.00 W/m2 unknown
20:59 80.6 °F 71.6 °F 29.8 in East 2.5 mph 5 mph 72% 0 in 9.00 W/m2 unknown
21:04 80.6 °F 71.6 °F 29.8 in East 2.5 mph 3.7 mph 72% 0 in 7.00 W/m2 unknown
21:09 80.6 °F 71.6 °F 29.8 in East 4.3 mph 6.8 mph 72% 0 in 5.00 W/m2 unknown
21:14 80.6 °F 69.8 °F 29.8 in East 5 mph 6.8 mph 72% 0 in 0.00 W/m2 unknown
21:19 80.6 °F 69.8 °F 29.8 in East 5 mph 6.8 mph 72% 0 in 0.00 W/m2 unknown
21:24 80.6 °F 69.8 °F 29.8 in ENE 4.3 mph 6.8 mph 73% 0 in 0.00 W/m2 unknown
21:29 80.6 °F 69.8 °F 29.8 in ENE 4.3 mph 6.8 mph 73% 0 in 0.00 W/m2 unknown
21:34 80.6 °F 69.8 °F 29.8 in ENE 4.3 mph 6.8 mph 73% 0 in 0.00 W/m2 unknown
21:39 78.8 °F 69.8 °F 29.8 in ENE 3.1 mph 5 mph 74% 0 in 0.00 W/m2 unknown
21:44 78.8 °F 69.8 °F 29.8 in ENE 3.1 mph 5 mph 74% 0 in 0.00 W/m2 unknown
21:49 78.8 °F 69.8 °F 29.8 in ENE 1.9 mph 3.7 mph 75% 0 in 0.00 W/m2 unknown
21:54 78.8 °F 69.8 °F 29.8 in ENE 3.1 mph 3.7 mph 75% 0 in 0.00 W/m2 unknown
21:59 78.8 °F 69.8 °F 29.8 in ENE 3.7 mph 5 mph 76% 0 in 0.00 W/m2 unknown
22:04 78.8 °F 69.8 °F 29.8 in ENE 3.1 mph 5 mph 76% 0 in 0.00 W/m2 unknown
22:09 78.8 °F 69.8 °F 29.8 in ENE 3.1 mph 5 mph 76% 0 in 0.00 W/m2 unknown
22:14 78.8 °F 69.8 °F 29.8 in ENE 2.5 mph 5 mph 77% 0 in 0.00 W/m2 unknown
22:19 78.8 °F 69.8 °F 29.8 in ENE 3.1 mph 5 mph 77% 0 in 0.00 W/m2 unknown
22:24 78.8 °F 69.8 °F 29.8 in East 3.1 mph 5 mph 77% 0 in 0.00 W/m2 unknown
22:29 78.8 °F 69.8 °F 29.8 in East 3.1 mph 5 mph 77% 0 in 0.00 W/m2 unknown
22:34 77 °F 69.8 °F 29.8 in East 3.7 mph 5 mph 78% 0 in 0.00 W/m2 unknown
22:39 77 °F 69.8 °F 29.8 in East 2.5 mph 5 mph 78% 0 in 0.00 W/m2 unknown
22:44 77 °F 69.8 °F 29.8 in ENE 4.3 mph 6.2 mph 78% 0 in 0.00 W/m2 unknown
22:49 77 °F 69.8 °F 29.8 in ENE 3.7 mph 6.2 mph 78% 0 in 0.00 W/m2 unknown
22:54 77 °F 69.8 °F 29.8 in ENE 3.7 mph 5 mph 78% 0 in 0.00 W/m2 unknown
22:59 77 °F 69.8 °F 29.8 in ENE 3.7 mph 6.8 mph 78% 0 in 0.00 W/m2 unknown
23:04 77 °F 69.8 °F 29.8 in ENE 3.7 mph 6.8 mph 79% 0 in 0.00 W/m2 unknown
23:09 77 °F 69.8 °F 29.8 in ENE 3.7 mph 6.2 mph 79% 0 in 0.00 W/m2 unknown
23:14 77 °F 69.8 °F 29.8 in East 3.1 mph 5 mph 80% 0 in 0.00 W/m2 unknown
23:19 77 °F 69.8 °F 29.8 in East 3.1 mph 5 mph 80% 0 in 0.00 W/m2 unknown
23:24 77 °F 69.8 °F 29.8 in ENE 3.7 mph 6.2 mph 80% 0 in 0.00 W/m2 unknown
23:29 77 °F 69.8 °F 29.8 in East 3.7 mph 6.2 mph 80% 0 in 0.00 W/m2 unknown
23:34 77 °F 69.8 °F 29.8 in East 3.1 mph 6.2 mph 80% 0 in 0.00 W/m2 unknown
23:39 77 °F 69.8 °F 29.8 in SE 2.5 mph 6.2 mph 80% 0 in 0.00 W/m2 unknown
23:44 77 °F 69.8 °F 29.8 in SSW 3.1 mph 5 mph 81% 0 in 0.00 W/m2 unknown
23:49 77 °F 69.8 °F 29.8 in SSW 3.1 mph 5 mph 82% 0 in 0.00 W/m2 unknown
23:54 77 °F 69.8 °F 29.8 in SSW 2.5 mph 3.7 mph 83% 0 in 0.00 W/m2 unknown
23:59 77 °F 69.8 °F 29.8 in SW 1.9 mph 3.7 mph 83% 0 in 0.00 W/m2 unknown
Stazione Meteorologica MeteoMincio Rivalta s/M (MN)
Con i complimenti di Weather Underground - 2 mb



METEO PILLOLE
Maggior quantità di pioggia caduta in 12 ore in Italia
Rossiglione nell'entroterra genovese dalle 5.40 alle 17.40
Il 4 ottobre 2021 caddero 740.6mm di pioggia.
Share

Non seguire questo link o sarai bannato dal sito!